Year,Month,Day,Hour,Minute,Value (Times are PST for temperature in C)
2012,08,24,00,02,13.30
2012,08,24,00,03,13.30
2012,08,24,00,04,13.30
2012,08,24,00,05,13.30
2012,08,24,00,06,13.30
2012,08,24,00,07,13.30
2012,08,24,00,08,13.30
2012,08,24,00,09,13.30
2012,08,24,00,10,13.30
2012,08,24,00,11,13.30
2012,08,24,00,12,13.30
2012,08,24,00,14,13.30
2012,08,24,00,15,13.30
2012,08,24,00,16,13.30
2012,08,24,00,17,13.30
2012,08,24,00,18,13.30
2012,08,24,00,19,13.30
2012,08,24,00,20,13.30
2012,08,24,00,21,13.30
2012,08,24,00,22,13.20
2012,08,24,00,23,13.30
2012,08,24,00,24,13.20
2012,08,24,00,25,13.20
2012,08,24,00,26,13.20
2012,08,24,00,27,13.20
2012,08,24,00,28,13.20
2012,08,24,00,29,13.20
2012,08,24,00,30,13.20
2012,08,24,00,31,13.20
2012,08,24,00,32,13.20
2012,08,24,00,33,13.20
2012,08,24,00,34,13.20
2012,08,24,00,35,13.20
2012,08,24,00,36,13.20
2012,08,24,00,37,13.20
2012,08,24,00,38,13.20
2012,08,24,00,39,13.20
2012,08,24,00,40,13.20
2012,08,24,00,41,13.20
2012,08,24,00,42,13.20
2012,08,24,00,43,13.20
2012,08,24,00,44,13.20
2012,08,24,00,45,13.20
2012,08,24,00,46,13.20
2012,08,24,00,47,13.20
2012,08,24,00,48,13.20
2012,08,24,00,49,13.10
2012,08,24,00,50,13.10
2012,08,24,00,51,13.10
2012,08,24,00,52,13.10
2012,08,24,00,53,13.10
2012,08,24,00,54,13.10
2012,08,24,00,55,13.10
2012,08,24,00,56,13.10
2012,08,24,00,57,13.10
2012,08,24,00,58,13.10
2012,08,24,00,59,13.10
2012,08,24,01,00,13.10
2012,08,24,01,01,13.10
2012,08,24,01,02,13.10
2012,08,24,01,03,13.10
2012,08,24,01,04,13.10
2012,08,24,01,05,13.10
2012,08,24,01,06,13.10
2012,08,24,01,07,13.10
2012,08,24,01,08,13.10
2012,08,24,01,09,13.10
2012,08,24,01,10,13.10
2012,08,24,01,11,13.10
2012,08,24,01,12,13.00
2012,08,24,01,13,13.00
2012,08,24,01,14,13.00
2012,08,24,01,15,13.00
2012,08,24,01,16,13.00
2012,08,24,01,17,13.00
2012,08,24,01,18,13.00
2012,08,24,01,19,13.00
2012,08,24,01,20,13.00
2012,08,24,01,21,13.00
2012,08,24,01,22,13.00
2012,08,24,01,23,13.00
2012,08,24,01,24,13.00
2012,08,24,01,25,13.00
2012,08,24,01,26,13.00
2012,08,24,01,27,13.00
2012,08,24,01,28,13.00
2012,08,24,01,29,12.90
2012,08,24,01,30,12.90
2012,08,24,01,31,12.90
2012,08,24,01,32,12.90
2012,08,24,01,33,12.90
2012,08,24,01,34,12.90
2012,08,24,01,35,12.90
2012,08,24,01,36,12.90
2012,08,24,01,37,12.80
2012,08,24,01,38,12.80
2012,08,24,01,39,12.80
2012,08,24,01,40,12.80
2012,08,24,01,41,12.80
2012,08,24,01,42,12.80
2012,08,24,01,43,12.80
2012,08,24,01,44,12.80
2012,08,24,01,45,12.80
2012,08,24,01,46,12.80
2012,08,24,01,47,12.80
2012,08,24,01,48,12.80
2012,08,24,01,49,12.80
2012,08,24,01,50,12.80
2012,08,24,01,51,12.80
2012,08,24,01,52,12.80
2012,08,24,01,53,12.80
2012,08,24,01,54,12.80
2012,08,24,01,55,12.80
2012,08,24,01,56,12.80
2012,08,24,01,57,12.80
2012,08,24,01,58,12.80
2012,08,24,01,59,12.80
2012,08,24,02,00,12.80
2012,08,24,02,01,12.80
2012,08,24,02,02,12.80
2012,08,24,02,03,12.80
2012,08,24,02,04,12.80
2012,08,24,02,05,12.80
2012,08,24,02,06,12.80
2012,08,24,02,07,12.80
2012,08,24,02,08,12.80
2012,08,24,02,09,12.80
2012,08,24,02,10,12.80
2012,08,24,02,11,12.80
2012,08,24,02,12,12.80
2012,08,24,02,13,12.80
2012,08,24,02,14,12.80
2012,08,24,02,15,12.80
2012,08,24,02,16,12.80
2012,08,24,02,17,12.80
2012,08,24,02,18,12.80
2012,08,24,02,19,12.80
2012,08,24,02,20,12.80
2012,08,24,02,21,12.80
2012,08,24,02,22,12.80
2012,08,24,02,23,12.80
2012,08,24,02,24,12.80
2012,08,24,02,25,12.80
2012,08,24,02,26,12.80
2012,08,24,02,27,12.80
2012,08,24,02,28,12.80
2012,08,24,02,29,12.80
2012,08,24,02,30,12.80
2012,08,24,02,31,12.80
2012,08,24,02,33,12.80
2012,08,24,02,34,12.80
2012,08,24,02,35,12.80
2012,08,24,02,36,12.80
2012,08,24,02,38,12.80
2012,08,24,02,39,12.80
2012,08,24,02,40,12.80
2012,08,24,02,41,12.80
2012,08,24,02,43,12.80
2012,08,24,02,44,12.80
2012,08,24,02,45,12.80
2012,08,24,02,46,12.80
2012,08,24,02,47,12.80
2012,08,24,02,48,12.80
2012,08,24,02,49,12.80
2012,08,24,02,50,12.80
2012,08,24,02,51,12.80
2012,08,24,02,52,12.80
2012,08,24,02,53,12.80
2012,08,24,02,55,12.80
2012,08,24,02,56,12.80
2012,08,24,02,57,12.80
2012,08,24,02,58,12.80
2012,08,24,03,00,12.80
2012,08,24,03,01,12.80
2012,08,24,03,02,12.80
2012,08,24,03,03,12.80
2012,08,24,03,05,12.80
2012,08,24,03,06,12.80
2012,08,24,03,07,12.80
2012,08,24,03,08,12.80
2012,08,24,03,10,12.80
2012,08,24,03,11,12.80
2012,08,24,03,12,12.80
2012,08,24,03,13,12.80
2012,08,24,03,15,12.80
2012,08,24,03,16,12.80
2012,08,24,03,17,12.80
2012,08,24,03,18,12.80
2012,08,24,03,19,12.80
2012,08,24,03,20,12.70
2012,08,24,03,21,12.70
2012,08,24,03,22,12.70
2012,08,24,03,24,12.70
2012,08,24,03,25,12.70
2012,08,24,03,26,12.70
2012,08,24,03,27,12.70
2012,08,24,03,29,12.70
2012,08,24,03,30,12.70
2012,08,24,03,32,12.70
2012,08,24,03,33,12.60
2012,08,24,03,34,12.60
2012,08,24,03,35,12.60
2012,08,24,03,37,12.50
2012,08,24,03,38,12.50
2012,08,24,03,39,12.40
2012,08,24,03,40,12.40
2012,08,24,03,41,12.40
2012,08,24,03,43,12.40
2012,08,24,03,44,12.40
2012,08,24,03,45,12.40
2012,08,24,03,46,12.40
2012,08,24,03,47,12.40
2012,08,24,03,48,12.30
2012,08,24,03,49,12.40
2012,08,24,03,50,12.40
2012,08,24,03,51,12.40
2012,08,24,03,53,12.30
2012,08,24,03,54,12.30
2012,08,24,03,55,12.30
2012,08,24,03,57,12.30
2012,08,24,03,58,12.40
2012,08,24,03,59,12.40
2012,08,24,04,00,12.40
2012,08,24,04,02,12.40
2012,08,24,04,03,12.40
2012,08,24,04,04,12.40
2012,08,24,04,05,12.40
2012,08,24,04,06,12.40
2012,08,24,04,07,12.40
2012,08,24,04,08,12.40
2012,08,24,04,10,12.40
2012,08,24,04,11,12.40
2012,08,24,04,12,12.40
2012,08,24,04,13,12.40
2012,08,24,04,15,12.40
2012,08,24,04,16,12.50
2012,08,24,04,17,12.40
2012,08,24,04,18,12.40
2012,08,24,04,19,12.40
2012,08,24,04,20,12.40
2012,08,24,04,21,12.40
2012,08,24,04,22,12.40
2012,08,24,04,24,12.40
2012,08,24,04,25,12.50
2012,08,24,04,26,12.50
2012,08,24,04,27,12.50
2012,08,24,04,28,12.50
2012,08,24,04,30,12.50
2012,08,24,04,31,12.50
2012,08,24,04,32,12.50
2012,08,24,04,34,12.50
2012,08,24,04,35,12.50
2012,08,24,04,36,12.50
2012,08,24,04,38,12.50
2012,08,24,04,39,12.50
2012,08,24,04,40,12.50
2012,08,24,04,41,12.50
2012,08,24,04,42,12.60
2012,08,24,04,44,12.60
2012,08,24,04,45,12.60
2012,08,24,04,46,12.60
2012,08,24,04,48,12.60
2012,08,24,04,49,12.60
2012,08,24,04,50,12.60
2012,08,24,04,51,12.60
2012,08,24,04,53,12.60
2012,08,24,04,54,12.60
2012,08,24,04,55,12.60
2012,08,24,04,56,12.60
2012,08,24,04,58,12.60
2012,08,24,04,59,12.70
2012,08,24,05,00,12.70
2012,08,24,05,01,12.70
2012,08,24,05,03,12.70
2012,08,24,05,04,12.70
2012,08,24,05,05,12.70
2012,08,24,05,06,12.70
2012,08,24,05,08,12.70
2012,08,24,05,09,12.70
2012,08,24,05,10,12.70
2012,08,24,05,12,12.70
2012,08,24,05,13,12.80
2012,08,24,05,14,12.70
2012,08,24,05,15,12.80
2012,08,24,05,16,12.80
2012,08,24,05,18,12.80
2012,08,24,05,19,12.80
2012,08,24,05,20,12.80
2012,08,24,05,21,12.80
2012,08,24,05,23,12.80
2012,08,24,05,24,12.80
2012,08,24,05,25,12.80
2012,08,24,05,26,12.80
2012,08,24,05,27,12.90
2012,08,24,05,29,12.80
2012,08,24,05,30,12.80
2012,08,24,05,31,12.80
2012,08,24,05,32,12.80
2012,08,24,05,33,12.80
2012,08,24,05,34,12.80
2012,08,24,05,35,12.80
2012,08,24,05,36,12.80
2012,08,24,05,37,12.80
2012,08,24,05,39,12.80
2012,08,24,05,40,12.80
2012,08,24,05,41,12.80
2012,08,24,05,42,12.70
2012,08,24,05,43,12.70
2012,08,24,05,45,12.70
2012,08,24,05,46,12.70
2012,08,24,05,47,12.70
2012,08,24,05,49,12.70
2012,08,24,05,50,12.70
2012,08,24,05,51,12.70
2012,08,24,05,53,12.70
2012,08,24,05,54,12.70
2012,08,24,05,55,12.70
2012,08,24,05,56,12.70
2012,08,24,05,57,12.70
2012,08,24,05,59,12.60
2012,08,24,06,00,12.60
2012,08,24,06,01,12.60
2012,08,24,06,02,12.60
2012,08,24,06,04,12.60
2012,08,24,06,05,12.60
2012,08,24,06,06,12.60
2012,08,24,06,07,12.60
2012,08,24,06,09,12.60
2012,08,24,06,10,12.60
2012,08,24,06,11,12.60
2012,08,24,06,13,12.50
2012,08,24,06,14,12.50
2012,08,24,06,15,12.50
2012,08,24,06,16,12.40
2012,08,24,06,18,12.40
2012,08,24,06,19,12.40
2012,08,24,06,20,12.40
2012,08,24,06,21,12.40
2012,08,24,06,22,12.40
2012,08,24,06,23,12.40
2012,08,24,06,24,12.40
2012,08,24,06,25,12.30
2012,08,24,06,26,12.30
2012,08,24,06,28,12.30
2012,08,24,06,29,12.30
2012,08,24,06,30,12.30
2012,08,24,06,31,12.30
2012,08,24,06,33,12.30
2012,08,24,06,34,12.30
2012,08,24,06,35,12.30
2012,08,24,06,36,12.30
2012,08,24,06,38,12.30
2012,08,24,06,39,12.20
2012,08,24,06,40,12.20
2012,08,24,06,41,12.20
2012,08,24,06,43,12.20
2012,08,24,06,44,12.20
2012,08,24,06,45,12.20
2012,08,24,06,46,12.20
2012,08,24,06,47,12.20
2012,08,24,06,48,12.20
2012,08,24,06,49,12.20
2012,08,24,06,50,12.20
2012,08,24,06,52,12.20
2012,08,24,06,53,12.20
2012,08,24,06,54,12.20
2012,08,24,06,56,12.30
2012,08,24,06,57,12.30
2012,08,24,06,58,12.30
2012,08,24,06,59,12.30
2012,08,24,07,00,12.30
2012,08,24,07,02,12.30
2012,08,24,07,03,12.30
2012,08,24,07,04,12.30
2012,08,24,07,06,12.30
2012,08,24,07,07,12.30
2012,08,24,07,08,12.30
2012,08,24,07,09,12.30
2012,08,24,07,10,12.30
2012,08,24,07,12,12.30
2012,08,24,07,13,12.30
2012,08,24,07,15,12.30
2012,08,24,07,16,12.30
2012,08,24,07,17,12.30
2012,08,24,07,18,12.30
2012,08,24,07,20,12.30
2012,08,24,07,21,12.30
2012,08,24,07,22,12.30
2012,08,24,07,23,12.30
2012,08,24,07,24,12.30
2012,08,24,07,26,12.30
2012,08,24,07,27,12.30
2012,08,24,07,28,12.30
2012,08,24,07,29,12.30
2012,08,24,07,30,12.30
2012,08,24,07,31,12.30
2012,08,24,07,32,12.30
2012,08,24,07,33,12.30
2012,08,24,07,34,12.40
2012,08,24,07,35,12.30
2012,08,24,07,36,12.40
2012,08,24,07,37,12.40
2012,08,24,07,38,12.40
2012,08,24,07,39,12.40
2012,08,24,07,40,12.40
2012,08,24,07,41,12.40
2012,08,24,07,42,12.40
2012,08,24,07,43,12.40
2012,08,24,07,44,12.40
2012,08,24,07,45,12.40
2012,08,24,07,46,12.40
2012,08,24,07,47,12.50
2012,08,24,07,48,12.50
2012,08,24,07,49,12.50
2012,08,24,07,50,12.50
2012,08,24,07,51,12.50
2012,08,24,07,52,12.60
2012,08,24,07,53,12.60
2012,08,24,07,54,12.60
2012,08,24,07,55,12.60
2012,08,24,07,56,12.70
2012,08,24,07,57,12.70
2012,08,24,07,58,12.80
2012,08,24,07,59,12.80
2012,08,24,08,00,12.80
2012,08,24,08,01,12.90
2012,08,24,08,02,12.90
2012,08,24,08,03,12.90
2012,08,24,08,04,13.00
2012,08,24,08,05,13.10
2012,08,24,08,06,13.10
2012,08,24,08,07,13.10
2012,08,24,08,08,13.20
2012,08,24,08,09,13.20
2012,08,24,08,10,13.30
2012,08,24,08,11,13.30
2012,08,24,08,12,13.30
2012,08,24,08,13,13.40
2012,08,24,08,14,13.40
2012,08,24,08,15,13.40
2012,08,24,08,16,13.50
2012,08,24,08,17,13.50
2012,08,24,08,18,13.60
2012,08,24,08,19,13.60
2012,08,24,08,20,13.60
2012,08,24,08,21,13.60
2012,08,24,08,22,13.70
2012,08,24,08,23,13.70
2012,08,24,08,24,13.80
2012,08,24,08,25,13.80
2012,08,24,08,26,13.80
2012,08,24,08,27,13.80
2012,08,24,08,28,13.90
2012,08,24,08,29,13.90
2012,08,24,08,30,14.10
2012,08,24,08,32,14.20
2012,08,24,08,33,14.30
2012,08,24,08,34,14.30
2012,08,24,08,35,14.40
2012,08,24,08,37,14.50
2012,08,24,08,38,14.70
2012,08,24,08,39,14.70
2012,08,24,08,41,14.80
2012,08,24,08,42,14.90
2012,08,24,08,43,15.00
2012,08,24,08,44,15.10
2012,08,24,08,46,15.10
2012,08,24,08,47,15.20
2012,08,24,08,48,15.20
2012,08,24,08,50,15.20
2012,08,24,08,51,15.30
2012,08,24,08,52,15.30
2012,08,24,08,53,15.40
2012,08,24,08,55,15.50
2012,08,24,08,56,15.60
2012,08,24,08,57,15.70
2012,08,24,08,58,15.80
2012,08,24,08,59,15.80
2012,08,24,09,00,15.90
2012,08,24,09,01,16.00
2012,08,24,09,02,16.10
2012,08,24,09,03,16.10
2012,08,24,09,04,16.10
2012,08,24,09,05,16.10
2012,08,24,09,06,16.10
2012,08,24,09,08,16.10
2012,08,24,09,09,16.10
2012,08,24,09,10,16.20
2012,08,24,09,11,16.10
2012,08,24,09,13,16.10
2012,08,24,09,14,16.10
2012,08,24,09,15,16.10
2012,08,24,09,16,16.00
2012,08,24,09,18,16.00
2012,08,24,09,19,15.90
2012,08,24,09,20,15.90
2012,08,24,09,21,15.90
2012,08,24,09,23,15.90
2012,08,24,09,24,16.10
2012,08,24,09,25,16.10
2012,08,24,09,26,16.20
2012,08,24,09,28,16.30
2012,08,24,09,29,16.30
2012,08,24,09,30,16.40
2012,08,24,09,31,16.50
2012,08,24,09,33,16.60
2012,08,24,09,34,16.60
2012,08,24,09,35,16.60
2012,08,24,09,36,16.60
2012,08,24,09,38,16.50
2012,08,24,09,39,16.30
2012,08,24,09,40,16.30
2012,08,24,09,41,16.30
2012,08,24,09,43,16.30
2012,08,24,09,44,16.30
2012,08,24,09,45,16.40
2012,08,24,09,47,16.60
2012,08,24,09,48,16.70
2012,08,24,09,49,16.70
2012,08,24,09,50,16.70
2012,08,24,09,52,16.70
2012,08,24,09,53,16.80
2012,08,24,09,54,16.80
2012,08,24,09,55,16.80
2012,08,24,09,57,16.90
2012,08,24,09,58,16.80
2012,08,24,09,59,16.80
2012,08,24,10,00,16.70
2012,08,24,10,02,16.50
2012,08,24,10,03,16.30
2012,08,24,10,04,16.20
2012,08,24,10,06,16.10
2012,08,24,10,07,15.90
2012,08,24,10,08,15.90
2012,08,24,10,09,15.80
2012,08,24,10,11,15.80
2012,08,24,10,12,15.80
2012,08,24,10,13,15.90
2012,08,24,10,14,15.90
2012,08,24,10,15,16.00
2012,08,24,10,17,16.10
2012,08,24,10,18,16.30
2012,08,24,10,19,16.40
2012,08,24,10,21,16.50
2012,08,24,10,22,16.60
2012,08,24,10,23,16.70
2012,08,24,10,24,16.70
2012,08,24,10,25,16.70
2012,08,24,10,26,16.70
2012,08,24,10,28,16.70
2012,08,24,10,29,16.60
2012,08,24,10,30,16.50
2012,08,24,10,32,16.40
2012,08,24,10,33,16.40
2012,08,24,10,34,16.40
2012,08,24,10,36,16.30
2012,08,24,10,37,16.30
2012,08,24,10,38,16.30
2012,08,24,10,39,16.20
2012,08,24,10,40,16.20
2012,08,24,10,41,16.20
2012,08,24,10,42,16.20
2012,08,24,10,43,16.20
2012,08,24,10,45,16.20
2012,08,24,10,46,16.20
2012,08,24,10,47,16.20
2012,08,24,10,48,16.20
2012,08,24,10,49,16.10
2012,08,24,10,51,16.10
2012,08,24,10,52,16.20
2012,08,24,10,53,16.20
2012,08,24,10,54,16.20
2012,08,24,10,55,16.30
2012,08,24,10,56,16.30
2012,08,24,10,57,16.40
2012,08,24,10,58,16.60
2012,08,24,10,59,16.60
2012,08,24,11,00,16.70
2012,08,24,11,01,16.70
2012,08,24,11,02,16.70
2012,08,24,11,03,16.70
2012,08,24,11,05,16.70
2012,08,24,11,06,16.70
2012,08,24,11,07,16.70
2012,08,24,11,09,16.70
2012,08,24,11,10,16.70
2012,08,24,11,11,16.60
2012,08,24,11,12,16.60
2012,08,24,11,14,16.60
2012,08,24,11,15,16.60
2012,08,24,11,16,16.60
2012,08,24,11,17,16.70
2012,08,24,11,19,16.70
2012,08,24,11,20,16.70
2012,08,24,11,21,16.70
2012,08,24,11,22,16.70
2012,08,24,11,23,16.70
2012,08,24,11,25,16.70
2012,08,24,11,26,16.80
2012,08,24,11,27,16.80
2012,08,24,11,28,16.80
2012,08,24,11,29,16.90
2012,08,24,11,31,16.90
2012,08,24,11,32,16.90
2012,08,24,11,33,16.90
2012,08,24,11,34,16.80
2012,08,24,11,36,16.80
2012,08,24,11,37,16.80
2012,08,24,11,38,16.80
2012,08,24,11,39,16.70
2012,08,24,11,41,16.70
2012,08,24,11,42,16.70
2012,08,24,11,43,16.70
2012,08,24,11,45,16.70
2012,08,24,11,46,16.70
2012,08,24,11,47,16.70
2012,08,24,11,48,16.80
2012,08,24,11,50,16.80
2012,08,24,11,51,16.80
2012,08,24,11,52,16.80
2012,08,24,11,53,16.80
2012,08,24,11,55,16.70
2012,08,24,11,56,16.60
2012,08,24,11,57,16.50
2012,08,24,11,58,16.40
2012,08,24,11,59,16.30
2012,08,24,12,00,16.30
2012,08,24,12,01,16.30
2012,08,24,12,02,16.30
2012,08,24,12,03,16.40
2012,08,24,12,05,16.40
2012,08,24,12,06,16.60
2012,08,24,12,07,16.70
2012,08,24,12,08,16.80
2012,08,24,12,10,16.90
2012,08,24,12,11,17.10
2012,08,24,12,12,17.10
2012,08,24,12,14,17.20
2012,08,24,12,15,17.30
2012,08,24,12,16,17.40
2012,08,24,12,18,17.40
2012,08,24,12,19,17.40
2012,08,24,12,20,17.40
2012,08,24,12,21,17.40
2012,08,24,12,23,17.40
2012,08,24,12,24,17.40
2012,08,24,12,25,17.30
2012,08,24,12,26,17.30
2012,08,24,12,28,17.40
2012,08,24,12,29,17.40
2012,08,24,12,30,17.40
2012,08,24,12,31,17.30
2012,08,24,12,32,17.30
2012,08,24,12,33,17.20
2012,08,24,12,34,17.20
2012,08,24,12,35,17.30
2012,08,24,12,36,17.30
2012,08,24,12,37,17.30
2012,08,24,12,38,17.30
2012,08,24,12,39,17.40
2012,08,24,12,40,17.40
2012,08,24,12,41,17.50
2012,08,24,12,42,17.60
2012,08,24,12,43,17.60
2012,08,24,12,44,17.60
2012,08,24,12,45,17.70
2012,08,24,12,46,17.70
2012,08,24,12,47,17.80
2012,08,24,12,48,17.80
2012,08,24,12,49,17.90
2012,08,24,12,50,17.90
2012,08,24,12,51,17.90
2012,08,24,12,52,18.00
2012,08,24,12,53,17.90
2012,08,24,12,54,17.90
2012,08,24,12,55,17.80
2012,08,24,12,56,17.70
2012,08,24,12,57,17.60
2012,08,24,12,58,17.60
2012,08,24,12,59,17.60
2012,08,24,13,00,17.50
2012,08,24,13,01,17.40
2012,08,24,13,02,17.30
2012,08,24,13,03,17.30
2012,08,24,13,04,17.30
2012,08,24,13,05,17.30
2012,08,24,13,06,17.20
2012,08,24,13,07,17.20
2012,08,24,13,08,17.20
2012,08,24,13,09,17.20
2012,08,24,13,10,17.20
2012,08,24,13,11,17.20
2012,08,24,13,12,17.30
2012,08,24,13,13,17.30
2012,08,24,13,14,17.40
2012,08,24,13,15,17.50
2012,08,24,13,16,17.60
2012,08,24,13,17,17.60
2012,08,24,13,18,17.70
2012,08,24,13,19,17.70
2012,08,24,13,20,17.70
2012,08,24,13,21,17.80
2012,08,24,13,22,17.90
2012,08,24,13,23,17.90
2012,08,24,13,24,18.00
2012,08,24,13,25,18.00
2012,08,24,13,26,17.90
2012,08,24,13,27,17.90
2012,08,24,13,28,17.90
2012,08,24,13,29,17.90
2012,08,24,13,30,17.90
2012,08,24,13,32,17.90
2012,08,24,13,33,17.90
2012,08,24,13,34,18.00
2012,08,24,13,35,18.00
2012,08,24,13,37,18.00
2012,08,24,13,38,18.00
2012,08,24,13,39,17.80
2012,08,24,13,40,17.60
2012,08,24,13,41,17.50
2012,08,24,13,43,17.50
2012,08,24,13,44,17.50
2012,08,24,13,45,17.60
2012,08,24,13,46,17.70
2012,08,24,13,48,17.80
2012,08,24,13,49,17.90
2012,08,24,13,50,17.90
2012,08,24,13,51,18.00
2012,08,24,13,53,18.00
2012,08,24,13,54,17.90
2012,08,24,13,55,17.80
2012,08,24,13,56,17.80
2012,08,24,13,58,17.70
2012,08,24,13,59,17.70
2012,08,24,14,00,17.70
2012,08,24,14,01,17.80
2012,08,24,14,03,17.80
2012,08,24,14,04,17.90
2012,08,24,14,05,18.00
2012,08,24,14,07,18.10
2012,08,24,14,08,18.30
2012,08,24,14,09,18.30
2012,08,24,14,10,18.30
2012,08,24,14,12,18.20
2012,08,24,14,13,18.20
2012,08,24,14,14,18.20
2012,08,24,14,15,18.30
2012,08,24,14,17,18.30
2012,08,24,14,18,18.20
2012,08,24,14,19,18.10
2012,08,24,14,20,18.00
2012,08,24,14,22,17.90
2012,08,24,14,23,17.90
2012,08,24,14,24,17.90
2012,08,24,14,25,17.90
2012,08,24,14,27,17.90
2012,08,24,14,28,17.80
2012,08,24,14,29,17.80
2012,08,24,14,30,17.80
2012,08,24,14,32,17.80
2012,08,24,14,33,17.80
2012,08,24,14,34,17.80
2012,08,24,14,35,17.80
2012,08,24,14,36,17.90
2012,08,24,14,37,17.90
2012,08,24,14,38,17.90
2012,08,24,14,39,18.00
2012,08,24,14,40,18.10
2012,08,24,14,42,18.20
2012,08,24,14,43,18.20
2012,08,24,14,44,18.30
2012,08,24,14,45,18.40
2012,08,24,14,46,18.50
2012,08,24,14,48,18.60
2012,08,24,14,49,18.60
2012,08,24,14,50,18.50
2012,08,24,14,52,18.50
2012,08,24,14,53,18.50
2012,08,24,14,54,18.60
2012,08,24,14,55,18.60
2012,08,24,14,57,18.70
2012,08,24,14,58,18.80
2012,08,24,14,59,18.90
2012,08,24,15,00,18.90
2012,08,24,15,01,18.80
2012,08,24,15,03,18.80
2012,08,24,15,04,18.80
2012,08,24,15,05,18.80
2012,08,24,15,06,18.90
2012,08,24,15,08,18.90
2012,08,24,15,09,19.10
2012,08,24,15,10,19.10
2012,08,24,15,11,19.10
2012,08,24,15,13,19.00
2012,08,24,15,14,18.80
2012,08,24,15,15,18.70
2012,08,24,15,17,18.70
2012,08,24,15,18,18.60
2012,08,24,15,19,18.50
2012,08,24,15,21,18.40
2012,08,24,15,22,18.50
2012,08,24,15,23,18.50
2012,08,24,15,25,18.50
2012,08,24,15,26,18.60
2012,08,24,15,27,18.60
2012,08,24,15,28,18.70
2012,08,24,15,30,18.70
2012,08,24,15,31,18.80
2012,08,24,15,32,18.80
2012,08,24,15,34,18.80
2012,08,24,15,35,18.80
2012,08,24,15,36,18.90
2012,08,24,15,37,19.00
2012,08,24,15,38,18.90
2012,08,24,15,40,18.90
2012,08,24,15,41,18.80
2012,08,24,15,42,18.80
2012,08,24,15,44,18.70
2012,08,24,15,45,18.90
2012,08,24,15,46,18.90
2012,08,24,15,47,19.10
2012,08,24,15,48,19.10
2012,08,24,15,50,19.10
2012,08,24,15,51,19.10
2012,08,24,15,52,19.10
2012,08,24,15,53,19.10
2012,08,24,15,55,19.10
2012,08,24,15,56,19.10
2012,08,24,15,57,19.20
2012,08,24,15,58,19.20
2012,08,24,15,59,19.30
2012,08,24,16,00,19.30
2012,08,24,16,01,19.40
2012,08,24,16,02,19.40
2012,08,24,16,03,19.60
2012,08,24,16,05,19.60
2012,08,24,16,06,19.70
2012,08,24,16,07,19.80
2012,08,24,16,08,19.70
2012,08,24,16,10,19.70
2012,08,24,16,11,19.70
2012,08,24,16,12,19.70
2012,08,24,16,13,19.80
2012,08,24,16,15,19.80
2012,08,24,16,16,19.80
2012,08,24,16,17,19.80
2012,08,24,16,19,19.80
2012,08,24,16,20,19.80
2012,08,24,16,21,19.80
2012,08,24,16,22,19.80
2012,08,24,16,24,19.80
2012,08,24,16,25,19.80
2012,08,24,16,26,19.80
2012,08,24,16,27,19.80
2012,08,24,16,29,19.80
2012,08,24,16,30,19.80
2012,08,24,16,31,19.90
2012,08,24,16,32,19.90
2012,08,24,16,34,20.00
2012,08,24,16,35,20.10
2012,08,24,16,36,20.20
2012,08,24,16,37,20.20
2012,08,24,16,39,20.10
2012,08,24,16,40,20.10
2012,08,24,16,41,20.10
2012,08,24,16,42,20.10
2012,08,24,16,44,20.10
2012,08,24,16,45,20.10
2012,08,24,16,46,20.10
2012,08,24,16,47,20.00
2012,08,24,16,49,20.10
2012,08,24,16,50,20.00
2012,08,24,16,51,19.90
2012,08,24,16,53,19.90
2012,08,24,16,54,19.80
2012,08,24,16,55,19.80
2012,08,24,16,56,19.80
2012,08,24,16,57,19.80
2012,08,24,16,58,19.90
2012,08,24,17,00,19.90
2012,08,24,17,01,20.00
2012,08,24,17,02,20.10
2012,08,24,17,03,20.10
2012,08,24,17,05,20.10
2012,08,24,17,06,20.10
2012,08,24,17,07,20.00
2012,08,24,17,08,19.90
2012,08,24,17,10,19.90
2012,08,24,17,11,19.80
2012,08,24,17,12,19.80
2012,08,24,17,13,19.70
2012,08,24,17,15,19.70
2012,08,24,17,16,19.80
2012,08,24,17,17,19.80
2012,08,24,17,18,19.80
2012,08,24,17,20,19.80
2012,08,24,17,21,19.80
2012,08,24,17,22,19.90
2012,08,24,17,23,19.90
2012,08,24,17,25,19.90
2012,08,24,17,26,19.90
2012,08,24,17,27,19.90
2012,08,24,17,28,19.90
2012,08,24,17,30,19.80
2012,08,24,17,31,19.80
2012,08,24,17,32,19.80
2012,08,24,17,33,19.80
2012,08,24,17,35,19.80
2012,08,24,17,36,19.90
2012,08,24,17,37,19.90
2012,08,24,17,38,19.90
2012,08,24,17,40,19.90
2012,08,24,17,41,19.90
2012,08,24,17,42,20.00
2012,08,24,17,44,20.00
2012,08,24,17,45,19.90
2012,08,24,17,46,19.90
2012,08,24,17,47,19.90
2012,08,24,17,49,19.80
2012,08,24,17,50,19.80
2012,08,24,17,51,19.80
2012,08,24,17,53,19.80
2012,08,24,17,54,19.80
2012,08,24,17,55,19.80
2012,08,24,17,56,19.90
2012,08,24,17,57,20.00
2012,08,24,17,59,20.10
2012,08,24,18,00,20.20
2012,08,24,18,01,20.30
2012,08,24,18,02,20.30
2012,08,24,18,04,20.30
2012,08,24,18,05,20.40
2012,08,24,18,06,20.40
2012,08,24,18,07,20.40
2012,08,24,18,09,20.40
2012,08,24,18,10,20.30
2012,08,24,18,11,20.20
2012,08,24,18,13,20.10
2012,08,24,18,14,20.00
2012,08,24,18,15,20.00
2012,08,24,18,17,20.00
2012,08,24,18,18,19.90
2012,08,24,18,19,19.80
2012,08,24,18,20,19.80
2012,08,24,18,21,19.80
2012,08,24,18,23,19.90
2012,08,24,18,24,19.90
2012,08,24,18,25,19.80
2012,08,24,18,26,19.80
2012,08,24,18,28,19.80
2012,08,24,18,29,19.80
2012,08,24,18,30,19.90
2012,08,24,18,31,19.90
2012,08,24,18,33,19.90
2012,08,24,18,34,19.90
2012,08,24,18,35,19.90
2012,08,24,18,37,19.90
2012,08,24,18,38,20.00
2012,08,24,18,39,19.90
2012,08,24,18,40,19.90
2012,08,24,18,41,19.90
2012,08,24,18,43,19.80
2012,08,24,18,44,19.80
2012,08,24,18,45,19.80
2012,08,24,18,47,19.80
2012,08,24,18,48,19.80
2012,08,24,18,49,19.80
2012,08,24,18,50,19.70
2012,08,24,18,51,19.60
2012,08,24,18,52,19.60
2012,08,24,18,54,19.50
2012,08,24,18,55,19.40
2012,08,24,18,56,19.40
2012,08,24,18,57,19.40
2012,08,24,18,59,19.40
2012,08,24,19,00,19.30
2012,08,24,19,01,19.30
2012,08,24,19,02,19.30
2012,08,24,19,03,19.30
2012,08,24,19,05,19.30
2012,08,24,19,06,19.40
2012,08,24,19,07,19.40
2012,08,24,19,08,19.50
2012,08,24,19,10,19.40
2012,08,24,19,11,19.40
2012,08,24,19,12,19.40
2012,08,24,19,13,19.40
2012,08,24,19,14,19.40
2012,08,24,19,16,19.30
2012,08,24,19,17,19.30
2012,08,24,19,18,19.30
2012,08,24,19,19,19.40
2012,08,24,19,21,19.40
2012,08,24,19,22,19.40
2012,08,24,19,23,19.50
2012,08,24,19,24,19.50
2012,08,24,19,26,19.50
2012,08,24,19,27,19.60
2012,08,24,19,28,19.60
2012,08,24,19,30,19.60
2012,08,24,19,31,19.50
2012,08,24,19,32,19.40
2012,08,24,19,33,19.30
2012,08,24,19,34,19.30
2012,08,24,19,35,19.30
2012,08,24,19,36,19.20
2012,08,24,19,37,19.10
2012,08,24,19,38,19.00
2012,08,24,19,39,18.80
2012,08,24,19,40,18.80
2012,08,24,19,41,18.70
2012,08,24,19,42,18.60
2012,08,24,19,43,18.60
2012,08,24,19,44,18.60
2012,08,24,19,45,18.50
2012,08,24,19,46,18.40
2012,08,24,19,47,18.40
2012,08,24,19,48,18.30
2012,08,24,19,49,18.30
2012,08,24,19,50,18.30
2012,08,24,19,51,18.20
2012,08,24,19,52,18.20
2012,08,24,19,53,18.10
2012,08,24,19,54,18.10
2012,08,24,19,55,18.10
2012,08,24,19,56,18.00
2012,08,24,19,57,18.00
2012,08,24,19,58,17.90
2012,08,24,19,59,17.90
2012,08,24,20,00,17.90
2012,08,24,20,01,17.80
2012,08,24,20,02,17.80
2012,08,24,20,04,17.70
2012,08,24,20,05,17.70
2012,08,24,20,06,17.60
2012,08,24,20,07,17.60
2012,08,24,20,08,17.50
2012,08,24,20,09,17.40
2012,08,24,20,10,17.40
2012,08,24,20,11,17.30